This demonstration page uses our WeatherBlox Daily Observations layout. Learn more.

Left ArrowRight Arrow

39.92423, -83.80882

Hourly Observations for August 7, 2019

Temp ( °F °C ) Dew Point ( °F °C ) Humidity (%) Winds ( mph kmh ) Pressure ( in mb ) Visibility ( mi km ) Precip ( " mm )
12:10 am 00:10 Clear with Mist and Fog 66 19 66 19 100 100 N N/A 29.82 1010 2 3.21868 N/A
12:19 am 00:19 Clear with Mist and Fog 66 19 66 19 100 100 E 3 6 29.82 1010 4 6.43736 N/A
12:33 am 00:33 Clear with Mist and Fog 64 18 64 18 100 100 N N/A 29.82 1010 1.25 2.011675 N/A
12:38 am 00:38 Clear with Mist and Fog 64 18 64 18 100 100 E 3 6 29.82 1010 3 4.82802 N/A
12:56 am 00:56 Clear with Mist and Fog 65 18.3 65 18.3 100 100 N N/A 29.82 1010 5 8.0467 N/A
1:56 am 01:56 Clear with Mist and Fog 66 18.9 66 18.9 100 100 SE 5 7 29.81 1010 5 8.0467 N/A
2:56 am 02:56 Cloudy with Mist and Fog 66 18.9 66 18.9 100 100 SSW 3 6 29.82 1010 3 4.82802 N/A
3:56 am 03:56 Clear with Mist and Fog 66 18.9 66 18.9 100 100 N N/A 29.83 1010 1.75 2.816345 N/A
4:12 am 04:12 Partly Cloudy with Mist and Fog 66 19 66 19 100 100 N N/A 29.82 1010 3 4.82802 N/A
4:56 am 04:56 Clear with Mist and Fog 67 19.4 67 19.4 100 100 SW 7 11 29.82 1010 4 6.43736 N/A
5:56 am 05:56 Clear with Mist and Fog 66 18.9 66 18.9 100 100 WSW 5 7 29.82 1010 5 8.0467 N/A
6:36 am 06:36 Mostly Clear with Mist and Fog 66 19 66 19 100 100 N N/A 29.83 1010 2.5 4.02335 N/A
6:56 am 06:56 Partly Cloudy with Mist and Fog 65 18.3 65 18.3 100 100 N N/A 29.84 1011 2 3.21868 N/A
7:10 am 07:10 Mostly Cloudy with Mist and Fog 66 19 66 19 100 100 N N/A 29.85 1011 1.75 2.816345 N/A
7:36 am 07:36 Cloudy with Mist and Fog 66 19 66 19 100 100 N N/A 29.85 1011 2.5 4.02335 N/A
7:53 am 07:53 Cloudy with Mist and Fog 68 20 68 20 100 100 NW 3 6 29.84 1011 3 4.82802 N/A
7:56 am 07:56 Cloudy with Mist and Fog 68 20 68 20 100 100 NW 3 6 29.86 1011 2.5 4.02335 N/A
8:10 am 08:10 Cloudy with Mist and Fog 68 20 68 20 100 100 N N/A 29.84 1011 1.25 2.011675 N/A
8:20 am 08:20 Cloudy with Mist and Fog 68 20 68 20 100 100 N N/A 29.84 1011 1 1.60934 N/A
8:56 am 08:56 Cloudy with Mist and Fog 69 20.6 69 20.6 100 100 N N/A 29.85 1011 1.25 2.011675 N/A
9:18 am 09:18 Cloudy with Mist and Fog 72 22 72 22 100 100 N N/A 29.83 1010 2 3.21868 N/A
9:26 am 09:26 Mostly Cloudy with Mist and Fog 72 22 70 21 94 94 SW 5 7 29.83 1010 3 4.82802 N/A
9:49 am 09:49 Mostly Cloudy with Mist and Fog 72 22 72 22 100 100 N N/A 29.83 1010 4 6.43736 N/A
9:56 am 09:56 Mostly Cloudy with Mist and Fog 73 22.8 70 21.1 90 90 N N/A 29.85 1011 5 8.0467 N/A
10:23 am 10:23 Partly Cloudy with Mist and Fog 73 23 70 21 89 89 SW 6 9 29.83 1010 5 8.0467 N/A
10:56 am 10:56 Partly Cloudy 77 25 71 21.7 82 82 SW 5 7 29.86 1011 9 14.48406 N/A
11:56 am 11:56 Mostly Cloudy 80 26.7 68 20 67 67 WSW 8 13 29.85 1011 10 16.0934 N/A
12:56 pm 12:56 Mostly Sunny 83 28.3 64 17.8 53 53 W 7 11 29.85 1011 10 16.0934 N/A
1:56 pm 13:56 Partly Cloudy 84 28.9 60 15.6 44 44 WNW 9 15 29.84 1011 10 16.0934 N/A
2:56 pm 14:56 Mostly Sunny 84 28.9 64 17.8 51 51 W 9 15 29.83 1010 10 16.0934 N/A
3:56 pm 15:56 Mostly Sunny 84 28.9 60 15.6 44 44 WNW 12 19 29.82 1010 10 16.0934 N/A
4:56 pm 16:56 Partly Cloudy 84 28.9 61 16.1 46 46 NW 10 17 29.82 1010 10 16.0934 N/A
5:56 pm 17:56 Sunny 83 28.3 60 15.6 46 46 WNW 7 11 29.82 1010 10 16.0934 N/A
6:56 pm 18:56 Mostly Sunny 83 28.3 60 15.6 46 46 WNW 12 19 29.81 1010 10 16.0934 N/A
7:56 pm 19:56 Sunny 80 26.7 60 15.6 51 51 WNW 8 13 29.82 1010 10 16.0934 N/A
8:56 pm 20:56 Clear 74 23.3 60 15.6 62 62 WNW 3 6 29.83 1010 10 16.0934 N/A
9:56 pm 21:56 Clear 70 21.1 62 16.7 76 76 N N/A 29.84 1010 10 16.0934 N/A
10:56 pm 22:56 Clear 66 18.9 63 17.2 90 90 SSW 5 7 29.85 1011 10 16.0934 N/A
11:56 pm 23:56 Clear 66 18.9 63 17.2 90 90 N N/A 29.85 1011 10 16.0934 N/A

Powered by AerisWeather